Погода в Охвате

Россия / Тверская область     56°46′18″N   32°26′34″E
темп.,
°C
ветер,
м/с
пор.,
м/с
влажн.,
%
обл.,
%
осадки,
мм/ч
давл.,
гПа
погр.,
м
14 апреля, ср
ср1400:00+10св1196100 1.0 101711
03:00+10ююз129985 1.4 101740
06:00+9ю389993 0.1 1016278
09:00+10ю389571 0.1 1017476
12:00+13юз467490 0.2 10171040
15:00+11зсз447756 0.4 1018651
18:00+8ссз3484100 0.0 1019479
21:00+5с379398 0.0 1020345
15 апреля, чт
чт1500:00+5ссв3894100 0.3 1020365
03:00+5ссв41096100 2.6 1020406
06:00+5ссв41194100 1.1 1020534
09:00+5св51193100 1.1 1020572
12:00+5ссв51191100 0.1 1021540
15:00+7св51185100 0.2 1021742
18:00+5св61489100 1.3 1021603
21:00+5всв61489100 1.4 1022691
16 апреля, пт
пт1600:00+5всв6148991 0.0 1022595
03:00+4всв51489100 0.0 1022618
06:00+4всв51390100 0.0 1022533
09:00+5всв51386100 0.1 1023618
12:00+6всв41285100 0.2 1023654
15:00+11всв6106892 0.2 1023950
18:00+11всв61168100 0.0 1023958
21:00+8всв51373100 0.0 1025694
17 апреля, сб
сб1700:00+6всв51370100 0.0 1026575
03:00+5всв41271100 0.0 1026460
06:00+3всв41278100 0.0 1027408
09:00+6всв51267100 0.0 1028541
12:00+11в5855100 0.0 1027952
15:00+13в574895 0.0 10271305
18:00+12всв484897 0.0 10271106
21:00+6всв3116244 0.0 1029278
18 апреля, вс
вс1800:00+5всв313705 0.0 1029351
03:00+3всв310805 0.0 1030256
06:00+2всв310845 0.0 1030224
09:00+8в48550 0.0 1030515
12:00+12в56395 0.0 10291349
15:00+13в46355 0.0 10291678
18:00+12в35435 0.0 10291679
21:00+7всв27685 0.0 1030128